Regional Weather Roundup
Issued by NWS

Home | Current Version | Previous Version | Text Only | Print | Product List | Glossary Off
Versions: 1 2 3 4 5 6 7 8 9 10 11 12 13 14 15 16 17 18 19 20 21 22 23 24 25 26 27 28 29 30 31 32 33 34 35 36 37 38 39 40 41 42 43 44 45 46 47 48 49 50

000
ASUS43 KDTX 222201
RWRMI
MICHIGAN HOURLY REGIONAL WEATHER ROUNDUP
NATIONAL WEATHER SERVICE DETROIT/PONTIAC MI
600 PM EDT TUE MAY 22 2018

NOTE: "FAIR" INDICATES FEW OR NO CLOUDS BELOW 12,000 FEET WITH NO
SIGNIFICANT WEATHER AND/OR OBSTRUCTION TO VISIBILITY.

MIZ047>049-052>055-059>063-066>070-074>076-081>083-222300-
SOUTHEAST LOWER MICHIGAN

CITY           SKY/WX    TMP DP  RH WIND       PRES   REMARKS
ADRIAN         CLOUDY    72  60  66 N13G23    29.97R
ANN ARBOR      CLOUDY    65  59  81 NW17G24   29.98R
BAD AXE        FAIR      60  53  76 N13G18    29.99S
CARO           CLOUDY    60  53  78 NW9       30.00S
DETROIT CITY   CLOUDY    70  58  65 NW12G20   29.95R
DETROIT        PTSUNNY   70  58  65 NW16G25   29.96R
FLINT          CLOUDY    60  54  80 N9        30.00R
GROSSE ILE     FAIR      73  64  71 NW14      29.94R
HILLSDALE      CLOUDY    68  55  64 NW12      29.99R
HOWELL         CLOUDY    61  57  87 NW7       30.00R

CITY           SKY/WX    TMP DP  RH WIND       PRES   REMARKS
JACKSON        CLOUDY    63  58  83 NW10      30.00R
LAMBERTVILLE   FAIR      76  59  55 NW7G16    29.94R
LANSING        CLOUDY    62  57  83 NW9       30.02R
LAPEER         CLOUDY    59  53  79 N8        30.00R
MASON          CLOUDY    62  57  84 NW6       30.01R
MONROE         FAIR      73  62  68 NW15G23   29.94R
PONTIAC        CLOUDY    61  57  87 NW13      29.98R
PORT HOPE        N/A     53  48  83 NW8       29.98S
PORT HURON     CLOUDY    61  54  77 N3        29.97S
TRI CITIES     FAIR      65  55  70 CALM      30.00F
MIDLAND        PTSUNNY   64  55  74 CALM      29.99S
TROY           CLOUDY    67  58  72 NW9G20    29.99R
SAGINAW HB     CLOUDY    61  54  77 CALM      30.00F
$$
MIZ043>046-050>051-056>058-064>065-071>073-077>080-222300-
SOUTHWEST LOWER MICHIGAN

CITY           SKY/WX    TMP DP  RH WIND       PRES   REMARKS
BATTLE CREEK   CLOUDY    64  57  78 NW10      30.02S
BENTON HARBOR  CLOUDY    54  49  83 N5        30.07S
BIG RAPIDS     FAIR      65  55  68 CALM      30.01S
COLDWATER      CLOUDY    67  57  70 NW12      30.01R
FREMONT        FAIR      66  58  75 N6        30.01F
HOLLAND        FAIR      53  49  86 W8        30.05S
GRAND RAPIDS   CLOUDY    63  57  81 W9        30.02S
IONIA          CLOUDY    62  56  80 W6        30.02S
KALAMAZOO      CLOUDY    63  56  78 NW10      30.03S
LUDINGTON      FAIR      59  51  74 NW3       30.03S
MARSHALL       CLOUDY    63  57  80 NW7       30.01S
MOUNT PLEASANT FAIR      67  56  67 CALM      29.99F
MUSKEGON       FAIR      58  49  72 W8        30.03F
SOUTH HAVEN    CLOUDY    52  49  87 W6        30.07S
$$
MIZ016>042-222300-
NORTHERN LOWER MICHIGAN

CITY           SKY/WX    TMP DP  RH WIND       PRES   REMARKS
ALPENA         FAIR      72  48  42 N8        29.98S
BEAVER ISLAND  FAIR      61  47  59 SW10      30.01S
BELLAIRE       FAIR      65  44  45 NW8       30.01S
CADILLAC       FAIR      71  50  46 W12       29.99S
CHARLEVOIX     FAIR      62  48  59 W9        30.04F
FRANKFORT      FAIR      60  51  72 W7        30.03S
GAYLORD        FAIR      70  47  43 NW8       29.99S
HARBOR SPRINGS FAIR      51  44  77 SW8       30.01R
HOUGHTON LAKE  FAIR      70  50  49 SW3       29.98S
MANISTEE       FAIR      58  49  72 NW7       30.03S
OSCODA         FAIR      63  42  46 E7        29.98S
PELLSTON       FAIR      71  45  39 W10       29.99S
ROGERS CITY    FAIR      62  48  60 NE3       30.00S
$$
MIZ007>008-015-222300-
EASTERN UPPER MICHIGAN

CITY           SKY/WX    TMP DP  RH WIND       PRES   REMARKS
KINROSS        FAIR      69  43  38 N15       29.98R
MACKINAC ISLAN FAIR      64  46  51 SW9       29.99S
NEWBERRY       FAIR      71  34  25 NW7       29.99R
S. S. MARIE    FAIR      70  45  40 NW12G18   29.98R
MUNISING         N/A     53  32  44 N7        30.01R
$$
MIZ004>006-011>014-085-222300-
CENTRAL UPPER MICHIGAN

CITY           SKY/WX    TMP DP  RH WIND       PRES   REMARKS
MANISTIQUE     FAIR      58  50  75 S12       30.00F
ESCANABA       FAIR      63  51  65 S13       30.00S
MENOMINEE      FAIR      71  53  52 S9        30.01S
SAWYER-GWINN   MOSUNNY   73  34  23 NE13      30.00S
$$
MIZ001>003-009>011-084-222300-
WESTERN UPPER MICHIGAN

CITY           SKY/WX    TMP DP  RH WIND       PRES   REMARKS
IRON MOUNTAIN  FAIR      81  35  19 W10G18    29.97S
HOUGHTON       FAIR      73  40  30 NW15      30.01S
COPPER HARBOR    N/A     52  42  69 N10       29.99S
IRONWOOD       FAIR      75  49  39 N7G16     30.02S
$$

ABBREVIATIONS USED IN REMARKS
   TC - TEMPERATURE IN CELSIUS
  WCI - WIND CHILL INDEX
   HX - HEAT INDEX
  VSB - VISIBILITY





USA.gov is the U.S. government's official web portal to all federal, state and local government web resources and services.